Tracking 19575 objects as of 18-Feb-2019
HD Live streaming from Space Station
objects crossing your sky now

QUIKSCAT

Track QUIKSCAT now!
10-day predictions
QUIKSCAT is classified as:


NORAD ID: 25789
Int'l Code: 1999-034A
Perigee: 664.2 km
Apogee: 805.7 km
Inclination: 98.6 °
Period: 99.4 minutes
Semi major axis: 7105 km
RCS: 2.9895 m2 (large)
Launch date: June 20, 1999
Source: United States (US)
Launch site: AIR FORCE WESTERN TEST RANGE (AFWTR)

Detailed snapshots of the winds swirling above the world's oceans.
aabbcc
Your satellite tracking list
Your tracking list is empty




NASA's NSSDC Master Catalog

Two Line Element Set (TLE):
1 25789U 99034A   19048.62306087 +.00000083 +00000-0 +33028-4 0  9991
2 25789 098.5999 243.1234 0099576 159.8327 200.6844 14.49334862024624
Source of the keplerian elements: AFSPC